This is the latest recevied weather packets stored in our database for station/object KC3ROS. If no packets are shown the sender has not sent any weather packets the latest 10 day(s).
| Time | Temp. | Humidity | Pressure | Rain* | Wind** | Luminosity | Snow |
|---|---|---|---|---|---|---|---|
| 1777923121 | 21.67° C | 50% | 1006.2 hPa | 0 mm | - | 705 W/m² | - |
| 1777922819 | 22.78° C | 52% | 1006.1 hPa | 0 mm | - | 710 W/m² | - |
| 1777922516 | 22.78° C | 49% | 1006.2 hPa | 0 mm | - | 736 W/m² | - |
| 1777922215 | 21.67° C | 49% | 1006.2 hPa | 0 mm | - | 805 W/m² | - |
| 1777921910 | 20.56° C | 51% | 1006.5 hPa | 0 mm | - | 899 W/m² | - |
| 1777921606 | 20.56° C | 53% | 1006.5 hPa | 0 mm | - | 169 W/m² | - |
| 1777921298 | 22.22° C | 50% | 1006.5 hPa | 0 mm | - | 799 W/m² | - |
| 1777920994 | 22.22° C | 47% | 1006.6 hPa | 0 mm | - | 777 W/m² | - |
| 1777920691 | 21.11° C | 51% | 1006.6 hPa | 0 mm | - | 782 W/m² | - |
| 1777920387 | 21.11° C | 49% | 1006.6 hPa | 0 mm | - | 553 W/m² | - |
| 1777920082 | 21.67° C | 49% | 1006.9 hPa | 0 mm | - | 820 W/m² | - |
| 1777919779 | 21.67° C | 48% | 1006.9 hPa | 0 mm | - | 784 W/m² | - |
| 1777919477 | 21.11° C | 50% | 1006.9 hPa | 0 mm | - | 795 W/m² | - |
| 1777919174 | 21.67° C | 51% | 1006.8 hPa | 0 mm | - | 792 W/m² | - |
| 1777918872 | 21.67° C | 49% | 1006.8 hPa | 0 mm | - | 785 W/m² | - |
| 1777918569 | 21.11° C | 51% | 1007 hPa | 0 mm | - | 795 W/m² | - |
| 1777918266 | 20.56° C | 51% | 1007.1 hPa | 0 mm | - | 794 W/m² | - |
| 1777917965 | 20.56° C | 50% | 1007.1 hPa | 0 mm | - | 799 W/m² | - |
| 1777917664 | 20.56° C | 52% | 1007 hPa | 0 mm | - | 831 W/m² | - |
| 1777917361 | 20.56° C | 51% | 1007.3 hPa | 0 mm | - | 738 W/m² | - |
| 1777917057 | 20.56° C | 51% | 1007.2 hPa | 0 mm | - | 810 W/m² | - |
| 1777916755 | 21.11° C | 49% | 1007.2 hPa | 0 mm | - | 816 W/m² | - |
| 1777916452 | 20.56° C | 52% | 1007.1 hPa | 0 mm | - | 126 W/m² | - |
| 1777916148 | 20.56° C | 53% | 1007.2 hPa | 0 mm | - | 99 W/m² | - |
| 1777915846 | 20.56° C | 50% | 1007.3 hPa | 0 mm | - | 99 W/m² | - |
* Rain latest hour (hover to see other rain measurements)
** Current wind speed in m/s (hover to see current wind gust speed)